Location: Newark
(42.8481°N, 0.4872°E)
Time: 08:16:41
(UTC+00:00)

Vanguard 2 - Pass Details

Date: 30 October 2020
Orbit: 554 x 2937 km, 32.9° (Epoch: 28 November)

Event Time Altitude Azimuth Distance (km) Brightness Sun altitude
Rises 00:43:20 0° 277° (W) 6,547 - -58.1°
Reaches altitude 10° 00:48:02 10° 270° (W) 5,678 - -57.7°
Maximum altitude 01:03:05 36° 213° (SSW) 3,916 - -56.1°
Drops below altitude 10° 01:16:31 10° 154° (SSE) 5,047 - -54.6°
Sets 01:20:27 0° 146° (SE) 5,768 - -54.1°
